Home > Weather > Alta > Past weeks

Flag for Norway Weather for the Past 2 Weeks in Alta, Norway

Now
55 °F

Cool.


Feels Like: 55 °F
Forecast: 40 / 53 °F
Wind: 1 mph from North

Location: Alta Lufthavn

Current Time: May 6, 2016 at 5:17:20 PM

Latest Report: May 6, 2016 at 4:00 PM


Visibility: N/A

Pressure: 30.03 "Hg

Humidity: 44%

Dew Point: 34 °F

Location of AltaLocation

Historic Weather in Alta — Graph

°F

Alta Temperature Yesterday

Maximum temperature yesterday: 53 °F (at 11:00 AM)
Minimum temperature yesterday: 36 °F (at 3:00 AM)
Average temperature yesterday: 46 °F

High & Low Weather Summary for the Past Weeks

 TemperatureHumidityPressure
High58 °F (Apr 29, 3:00 PM)93% (Apr 27, 3:00 AM)30.41 "Hg (Apr 27, 3:00 AM)
Low25 °F (Apr 25, 3:00 AM)34% (May 1, 3:00 PM)29.79 "Hg (Apr 22, 8:00 PM)
Average43 °F60%30.08 "Hg
* Reported Apr 21 4:00 PM — May 6 4:00 PM, Alta, Weather by CustomWeather, © 2016

Note: Actual official high and low records may vary slightly from our data, if they occured in-between our weather recording intervals... More about our weather records

Advertising

Alta Weather History for the Previous 24 Hours

Scroll right to see more
 ConditionsComfort  
Time TempWeatherWind HumidityBarometerVisibility
4:00 PM
Fri, May 6
55 °FCool.1 mph44%30.03 "HgN/A
3:00 PM52 °FCool.3 mph57%30.03 "HgN/A
2:00 PM53 °FCool.3 mph52%30.03 "HgN/A
1:00 PM55 °FCool.3 mph48%30.04 "HgN/A
12:00 PM54 °FCool.2 mph48%30.04 "HgN/A
11:00 AM53 °FCool.5 mph52%30.04 "HgN/A
10:00 AM51 °FCool.3 mph56%30.06 "HgN/A
9:00 AM48 °FCool.3 mph58%30.06 "HgN/A
8:00 AM48 °FCool.2 mph62%30.07 "HgN/A
7:00 AM46 °FCool.1 mph63%30.08 "HgN/A
6:00 AM43 °FQuite cool.2 mph68%30.09 "HgN/A
5:00 AM42 °FQuite cool.2 mph72%30.10 "HgN/A
4:00 AM42 °FQuite cool.2 mph69%30.11 "HgN/A
3:00 AM41 °FQuite cool.2 mph68%30.12 "HgN/A
2:00 AM42 °FQuite cool.2 mph65%30.12 "HgN/A
1:00 AM41 °FQuite cool.1 mph68%30.11 "HgN/A
12:00 AM44 °FQuite cool.1 mph60%30.12 "HgN/A
11:00 PM
Thu, May 5
44 °FQuite cool.2 mph65%30.12 "HgN/A
10:00 PM46 °FCool.3 mph58%30.12 "HgN/A
9:00 PM47 °FCool.2 mph55%30.12 "HgN/A
8:00 PM49 °FCool.2 mph52%30.13 "HgN/A
7:00 PM50 °FCool.5 mph48%30.14 "HgN/A
6:00 PM51 °FCool.3 mph46%30.14 "HgN/A
5:00 PM51 °FCool.5 mph44%30.14 "HgN/A
Weather by CustomWeather, © 2016

See weather overviewHow to use our weather pages